Tracking 28052 objects as of 22-Sep-2023
HD Live streaming from Space Station
objects crossing your sky now

COSMOS 1561

Track COSMOS 1561 now!
10-day predictions
COSMOS 1561 is classified as:


NORAD ID: 15000
Int'l Code: 1984-052C
Perigee: 1,467.7 km
Apogee: 1,492.6 km
Inclination: 74.0 °
Period: 115.4 minutes
Semi major axis: 7851 km
RCS: 0.6982 m2 (medium)
Launch date: May 28, 1984
Source: Commonwealth of Independent States (former USSR) (CIS)
Launch site: PLESETSK MISSILE AND SPACE COMPLEX (PKMTR)
Your satellite tracking list
Your tracking list is empty




NASA's NSSDC Master Catalog

Two Line Element Set (TLE):
1 15000U 84052C   23264.79336487 -.00000003  00000-0  90690-4 0  9991
2 15000  74.0088 275.4442 0015909 306.4548 229.3556 12.47966993791057
Source of the keplerian elements: AFSPC